Location: Casone le Fosse
(44.6547°N, 12.1103°E)
Time: 11:54:47
(UTC+00:00)

H-2A R/B - Pass Details

Date: 29 October 2020
Orbit: 733 x 837 km, 98.2° (Epoch: 28 November)

Event Time Altitude Azimuth Distance (km) Brightness Sun altitude
Exits shadow 17:56:28 - 158° (SSE) 2,847 4.7 -20.5°
Reaches altitude 10° 17:57:32 10° 157° (SSE) 2,430 4.4 -20.7°
Maximum altitude 18:02:55 72° 74° (ENE) 879 2.0 -21.6°
Drops below altitude 10° 18:08:22 10° 351° (N) 2,460 4.7 -22.6°
Sets 18:10:45 0° 349° (N) 3,395 5.5 -23.0°
